sat.trackr.live / text

‹ back to catalog

HULIANWANG DIGUI-85

NORAD 65820 · 2025-220D

PAYLOAD ACTIVE UNKNOWN

§ Identity

Operator
Country
PRC
Launch date
2025-09-27
Launch site
TAISC
Launch vehicle
Mass (kg)
RCS (m²)

External: N2YO · Heavens-Above · Gunter

§ Orbital elements

Epoch: 2026-09-20T06:10:06.409632Z

Period
108.73 min
Inclination
86.5057°
Eccentricity
0.0001401
Mean motion
13.24410186 rev/d
Perigee alt
1,166.9 km
Apogee alt
1,169.0 km
Semi-major
7,546.1 km
B*
9.9599e-5
RAAN
11.8193°
Arg perigee
86.6819°
Mean anomaly
273.4475°
Rev number
4,750

§ Raw data

HULIANWANG DIGUI-851 65820U 25220D   26263.25701863  .00000057  00000+0  99599-4 0  99992 65820  86.5057  11.8193 0001401  86.6819 273.4475 13.24410186 47509

JSON: /api/v1/satellites/65820 · /tle

For live sub-satellite position, see the globe view (requires WebGL).

§ Visibility from observer

Set your observer location to see the next 7 days of passes ≥ 10°. The values pass through the URL so the page stays shareable.

No JS? Fill the form by hand. The geolocation button needs JavaScript.